Location: La Vergne
(36.0160°N, 86.5820°W)
Time: 20:31:46
(UTC-06:00)

CZ-2D R/B - Pass Details

Date: 24 September 2017
Orbit: 522 x 541 km, 97.5° (Epoch: 16 December)

Event Time Altitude Azimuth Distance (km) Brightness Sun altitude
Exits shadow 20:24:47 51° 186° (S) 665 3.6 -21.8°
Maximum altitude 20:25:39 76° 259° (WSW) 542 3.3 -22.0°
Drops below altitude 10° 20:29:28 10° 345° (NNW) 1,768 6.3 -22.7°
Sets 20:31:35 0° 347° (NNW) 2,663 7.2 -23.2°
